Regional Weather Roundup
Issued by NWS

Home | Current Version | Previous Version | Text Only | Print | Product List | Glossary On
Versions: 1 2 3 4 5 6 7 8 9 10 11 12 13 14 15 16 17 18 19 20 21 22 23 24 25 26 27 28
000
ASUS45 KREV 300110
RWRNV
NEVADA REGIONAL WEATHER ROUNDUP
NATIONAL WEATHER SERVICE RENO NV
600 PM PDT FRI APR 29 2016

NOTE: "FAIR" INDICATES FEW OR NO CLOUDS BELOW 12,000 FEET WITH NO
SIGNIFICANT WEATHER AND/OR OBSTRUCTIONS TO VISIBILITY.

NVZ001-003-004-300200-
WESTERN NEVADA

CITY           SKY/WX    TMP DP  RH WIND       PRES   REMARKS
RENO           TSTM      52  39  61 NE22G33   29.89S
CARSON CITY    FAIR      59  27  29 W16G30    29.88R
MINDEN         FAIR      59  28  31 W21G32    29.90S
SLIDE MTN        N/A     32  23  69 W35         N/A
PYRAMID LAKE     N/A     59 N/A N/A NW5         N/A
FALLON         CLOUDY    51  40  65 NW3       29.88S
LOVELOCK       CLOUDY    61  25  25 N14       29.84S
HAWTHORNE      MOSUNNY   63  28  27 N24G33    29.81R
$$

NVZ002-CAZ072-073-300200-
NORTHERN AND CENTRAL SIERRA

CITY           SKY/WX    TMP DP  RH WIND       PRES   REMARKS
S. LAKE TAHOE  MOSUNNY   49  28  44 SW7       29.95S
TRUCKEE        MOSUNNY   52  30  43 W18G26    29.94F
SQUAW VLY 8000   N/A     36  30  80 SW13        N/A
SUSANVILLE     CLOUDY    54  32  43 NW13      29.95R
BLUE CANYON    MOSUNNY   52  29  41 W12G18    29.97F
MAMMOTH LAKES  FAIR      52  29  42 W20G31    29.95S
BRIDGEPORT     LGT RAIN  45  31  58 W12G21    29.92F
$$

NVZ030-031-036-300200-
NORTHERN NEVADA

CITY           SKY/WX    TMP DP  RH WIND       PRES   REMARKS
ELKO           CLOUDY    47  37  68 SW5       29.86F
WINNEMUCCA     RAIN      43  40  89 NW20G25   29.94R FOG
WENDOVER       PTSUNNY   52  36  54 SW7       29.83S
$$

NVZ035-037-300200-
CENTRAL NEVADA

CITY           SKY/WX    TMP DP  RH WIND       PRES   REMARKS
ELY            CLOUDY    46  35  65 N7        29.88F
EUREKA           N/A     48  35  60 W14G20    29.86R
$$

NVZ013-014-300200-
SOUTH CENTRAL NEVADA

CITY           SKY/WX    TMP DP  RH WIND       PRES   REMARKS
TONOPAH        CLOUDY    56  27  32 N7        29.85S
$$

NVZ017-020-022-300200-
SOUTHERN NEVADA

CITY           SKY/WX    TMP DP  RH WIND       PRES   REMARKS
LAS VEGAS      MOSUNNY   76  36  23 E7        29.68F
N. LAS VEGAS   PTSUNNY   75  33  21 SE12      29.71F
NELLIS AFB     MOSUNNY   76  35  22 SE13      29.70F
HENDERSON      PTSUNNY   75  31  19 W15       29.75F
MERCURY        SUNNY     71  25  17 SW13G22   29.75F
$$




USA.gov is the U.S. government's official web portal to all federal, state and local government web resources and services.